sat.trackr.live / text

‹ back to catalog

TEN-KOH 2

NORAD 68261 · 2025-241B

PAYLOAD ACTIVE UNKNOWN

§ Identity

Operator
Country
JPN
Launch date
2025-10-26
Launch site
TANSC
Launch vehicle
Mass (kg)
RCS (m²)

External: N2YO · Heavens-Above · Gunter

§ Orbital elements

Epoch: 2026-09-19T14:45:20.671776Z

Period
94.43 min
Inclination
51.6575°
Eccentricity
0.0008223
Mean motion
15.24912673 rev/d
Perigee alt
485.4 km
Apogee alt
496.7 km
Semi-major
6,869.2 km
B*
1.7425e-4
RAAN
229.8503°
Arg perigee
98.9139°
Mean anomaly
261.2771°
Rev number
2,931

§ Raw data

TEN-KOH 21 68261U 25241B   26262.61482259  .00004060  00000+0  17425-3 0  99932 68261  51.6575 229.8503 0008223  98.9139 261.2771 15.24912673 29318

JSON: /api/v1/satellites/68261 · /tle

For live sub-satellite position, see the globe view (requires WebGL).

§ Visibility from observer

Set your observer location to see the next 7 days of passes ≥ 10°. The values pass through the URL so the page stays shareable.

No JS? Fill the form by hand. The geolocation button needs JavaScript.

§ Radio — SatNOGS DB

ModeDescriptionDownlinkUplink
CW CW 5.839 GHz
CW CW 435.860 MHz
AFSK Mode U - AFSK1k2 - Transmitter (inactive) 435.860 MHz
FM Mode U - FM - Digitalker (inactive) 435.860 MHz
GMSK Mode U - GMSK4k8 - Telemetry, Photos, Pictures (inactive) 435.895 MHz
GMSK Mode U - GMSK9k6 - Transmitter (inactive) 435.860 MHz
USB V/U Linear Transponder (inactive) 435.875 MHz–435.915 MHz 145.895 MHz–145.935 MHz

7 transmitters · refreshed weekly from db.satnogs.org